Location: Young's Pond
(41.2695°N, 72.7766°W)
Time: 04:47:32
(UTC-04:00)

Daily predictions for brighter satellites

Satellite Brightness Start Highest point End
(mag) Time Altitude Azimuth Time Altitude Azimuth Time Altitude Azimuth
CZ-2D R/B 4.5 02:46:12 10° NE 02:47:59 19° NE 02:47:59 19° NE
ATLAS 2AS CENTAUR R/B 3.6 03:17:04 49° NNW 03:17:04 49° NNW 03:23:34 10° NNE
Lacrosse 5 rocket 4.2 03:21:46 17° NE 03:21:46 17° NE 03:22:52 10° NE
Resurs 1-4 Rocket 3.8 03:15:15 10° NNE 03:18:00 30° NE 03:18:00 30° NE
Cosmos 2333 Rocket 4.0 03:18:08 10° N 03:23:00 28° NE 03:27:50 10° ESE
CZ-3A R/B 4.4 03:32:05 23° N 03:32:49 24° NNE 03:37:10 10° ENE
SL-16 R/B 3.8 03:49:20 29° NNW 03:49:20 29° NNW 03:52:16 10° NNW
Cosmos 2237 Rocket 3.6 03:45:35 10° N 03:50:46 36° ENE 03:55:56 10° SE
ATLAS 5 CENTAUR R/B 3.4 03:54:56 10° NNW 04:00:37 44° NE 04:06:43 10° ESE
Cosmos 2219 4.0 04:05:17 41° NNW 04:05:17 41° NNW 04:09:15 10° NNE
Cosmos 1980 4.5 03:58:49 10° NNW 04:04:22 50° ENE 04:09:51 10° SE
Cosmos 1821 Rocket 4.2 03:59:50 10° NNW 04:05:02 59° NW 04:05:02 59° NW
Gbstr 26 Del rocket 4.3 04:05:44 56° NW 04:07:37 89° SW 04:15:45 10° SE
SL-16 R/B 4.4 04:04:45 10° N 04:09:21 24° NE 04:13:55 10° ESE
Cosmos 1934 Rocket 3.8 04:03:58 10° N 04:10:17 82° W 04:10:20 82° WSW
RESURS DK-1 4.2 04:10:27 25° ESE 04:10:50 25° ESE 04:14:15 10° NE
Cosmos 1605 Rocket 4.1 04:05:05 10° N 04:11:14 72° E 04:17:26 10° SSE
NOSS 0 Rocket 4.0 04:07:30 10° NNW 04:13:45 75° ENE 04:19:59 10° SSE
CZ-4C R/B 3.9 04:17:35 30° S 04:17:35 30° S 04:21:24 10° S
Cosmos 2344 3.6 04:16:41 56° WSW 04:18:31 75° NW 04:27:20 10° NNE
ADEOS II 4.1 04:15:16 10° NE 04:19:33 25° E 04:23:50 10° SSE
Cosmos 1777 Rocket 3.9 04:21:55 76° NNW 04:21:55 76° NNW 04:26:53 10° NNE
NOSS 3-2 (C) 4.2 04:14:50 10° NNW 04:22:21 73° NE 04:30:25 10° SE
Cosmos 2227 Rocket 2.5 04:21:35 46° SSE 04:23:06 64° ESE 04:28:44 10° NNE
Cosmos 1743 3.9 04:20:52 10° N 04:23:34 38° NNE 04:23:34 38° NNE
MOS 1-B 4.3 04:20:55 10° N 04:26:38 64° WNW 04:26:47 64° W
ARIANE 5 R/B 4.1 04:22:48 10° N 04:25:08 22° NNW 04:25:08 22° NNW
Lacrosse 5 2.0 04:29:39 61° SSE 04:30:12 66° SE 04:35:14 10° NE
CZ-2D R/B 3.2 04:26:04 10° N 04:29:18 30° NW 04:29:18 30° NW
ADEOS Rocket 4.0 04:23:46 10° NNE 04:30:48 52° E 04:37:06 10° S
Cosmos 2219 Rocket 2.0 04:25:15 10° NNW 04:30:55 71° WSW 04:36:33 10° SSE
Cosmos 2297 Rocket 2.8 04:29:49 27° S 04:32:43 55° ESE 04:38:13 10° NNE
BREEZE M DEB (TANK) 3.0 04:33:50 48° N 04:33:50 48° N 04:39:21 10° ENE
PSLV R/B 4.2 04:32:48 10° N 04:36:14 60° N 04:36:14 60° N
Cosmos 1025 Rocket 3.4 04:36:44 39° SSE 04:38:09 64° E 04:42:26 10° NNE
Okean O Rocket 1.4 04:34:04 10° NNE 04:38:30 83° WNW 04:38:32 83° W
BREEZE-M DEB (TANK) 3.2 04:39:06 59° SSW 04:39:41 68° SSE 04:42:30 10° ENE
Cosmos 2112 Rocket 4.3 04:34:40 10° NNW 04:39:59 69° ENE 04:45:13 10° SSE
CZ-2C R/B 3.5 04:43:00 40° S 04:44:38 75° WSW 04:49:16 10° NNW
Cosmos 1680 Rocket 3.4 04:39:41 10° NNW 04:45:00 89° ENE 04:50:15 10° SSE
NOSS 3-4 (A) 3.4 04:43:37 43° SW 04:45:53 79° NW 04:52:27 10° NNE
NOSS 3-4 (C) 3.4 04:43:41 43° SW 04:45:59 80° NW 04:52:34 10° NNE
CZ-4B DEB 4.2 04:40:43 10° NNE 04:46:13 81° ESE 04:50:15 19° S
Cosmos 1606 Rocket 3.9 04:44:39 10° N 04:49:02 65° E 04:53:20 10° SSE
CZ-4B R/B 3.0 04:44:42 10° NNE 04:49:05 88° WNW 04:50:33 43° SSW
MOZ.5/SAFIR/RUBIN 5/SL-8 4.2 04:51:08 44° WNW 04:51:08 44° WNW 04:54:52 10° NNW
Tiangong 1 1.8 04:53:12 48° E 04:53:12 48° E 04:55:34 10° ENE
PAYLOAD B 4.1 04:49:25 10° N 04:54:55 76° WNW 04:58:16 25° SSW
Delta 2 Rocket 4.0 04:56:54 34° S 04:56:54 34° S 04:59:59 10° ESE
Lacrosse 5 rocket 3.3 04:57:30 19° NW 04:58:09 20° NNW 05:01:30 10° NNE
IRS-1C Rocket 4.2 04:54:29 10° N 04:59:40 56° WNW 05:01:40 35° SW
Resurs 1-4 Rocket 3.6 04:56:05 10° NNW 04:59:05 20° NW 04:59:05 20° NW
Cosmos 1726 Rocket 3.7 04:56:05 10° N 05:00:30 74° E 05:04:51 10° SSE
Cosmos 2082 3.6 04:59:50 33° SW 05:02:20 67° WNW 05:07:56 10° NNE
Okean 1-7 Rocket 4.3 05:04:14 34° WNW 05:04:14 34° WNW 05:07:50 10° N
Okean 2 3.7 04:59:50 10° S 05:03:57 69° E 05:08:05 10° NNE
BREEZE-M DEB (TANK) 4.4 05:00:32 21° WNW 05:04:34 76° SW 05:24:33 10° SE
Cosmos 2333 Rocket 2.4 05:02:02 10° NW 05:07:27 45° WSW 05:12:48 10° S
Cosmos 1892 Rocket 3.5 05:06:05 10° S 05:10:33 89° E 05:15:03 10° N
Thor Agena Rocket 3.5 05:05:34 10° S 05:10:50 75° WSW 05:16:10 10° NNW
Aureole 2 Rocket 4.2 05:10:57 10° N 05:14:12 33° ENE 05:17:10 10° SE
Meteor 1-19 Rocket 4.3 05:10:46 18° SSW 05:14:53 55° WNW 05:20:24 10° N
Cosmos 220 Rocket 4.2 05:15:42 35° WSW 05:16:56 46° WNW 05:21:02 10° N
Cosmos 2150 Rocket 4.4 05:12:31 10° S 05:17:35 63° ESE 05:22:41 10° NNE
PSLV R/B 3.4 05:15:23 10° N 05:19:44 75° WNW 05:24:00 10° SSW
USA 129 3.8 05:19:14 10° SE 05:21:00 27° ENE 05:22:41 10° NNE
Cosmos 1727 Rocket 4.4 05:18:50 19° SW 05:22:45 39° WNW 05:28:38 10° N
Cosmos 2016 Rocket 4.2 05:19:01 10° N 05:25:24 79° E 05:31:41 10° S
Cosmos 2098 Rocket 3.5 05:21:48 10° N 05:25:32 60° E 05:30:14 10° SSE
CZ-4B R/B 3.7 05:25:09 10° N 05:30:08 39° WNW 05:34:21 14° SW
Cosmos 2173 Rocket 3.9 05:25:15 10° NNW 05:31:18 69° W 05:37:22 10° S
Meteor 2-4 Rocket 3.9 05:28:35 10° SSW 05:34:13 53° WNW 05:40:02 10° N
Cosmos 2237 Rocket 2.8 05:29:47 10° NW 05:34:44 32° WSW 05:39:39 10° SSW
DELTA 2 R/B (1) 4.0 05:30:56 18° SW 05:34:55 54° SSE 05:40:22 10° E
Cosmos 1666 3.0 05:31:23 10° NNW 05:35:04 42° W 05:38:42 10° SSW
Meteor 1-23 Rocket 4.3 05:30:10 10° SSW 05:35:38 55° WNW 05:41:14 10° N
Cosmos 2228 3.0 05:31:20 10° N 05:35:45 85° W 05:40:07 10° S
NOSS 3-2 (A) 4.5 05:28:55 10° NW 05:35:48 38° WSW 05:43:03 10° S
COS B Rocket 3.8 05:37:25 18° NW 05:37:25 18° NW 05:38:23 10° NNW
Okean-O 2.7 05:35:29 10° N 05:39:51 58° WNW 05:44:11 10° SSW
Cosmos 1459 Rocket 4.1 05:34:37 10° NNW 05:40:51 57° W 05:47:00 10° SSW
Cosmos 2123 Rocket 4.3 05:35:32 10° S 05:41:40 74° E 05:47:50 10° N
ATLAS 5 CENTAUR R/B 2.9 05:39:45 10° NW 05:45:21 38° WSW 05:51:16 10° S
CZ-3A R/B 4.4 05:42:10 10° SW 05:45:22 12° SSW 05:47:27 10° S
OTV 4 2.2 05:47:38 15° SW 05:48:27 17° SSW 05:50:18 10° SSE
Cosmos 2058 Rocket 3.4 05:44:28 10° NNW 05:48:36 42° W 05:52:42 10° SSW
RESURS DK-1 3.4 05:46:26 17° WSW 05:48:47 27° WNW 05:52:23 10° N
Cosmos 1898 Rocket 3.6 05:46:23 10° SSW 05:51:39 60° WNW 05:56:53 10° NNE
EXPRESS MD2 3.9 05:49:23 10° NW 05:52:45 75° NNE 05:59:35 10° ESE
SL-16 R/B 2.3 05:48:16 10° NNW 05:53:47 53° WSW 05:59:16 10° S
MOS 1 Rocket 3.4 05:51:11 10° N 05:55:54 67° WNW 06:00:54 10° SSW
COBE Rocket 3.8 05:52:56 10° N 05:57:43 65° WNW 06:02:21 10° SSW
ADEOS II 2.5 05:54:29 10° N 05:59:24 41° WNW 06:04:17 10° SW
Cosmos 1346 Rocket 4.0 05:56:57 10° SW 06:00:04 22° WNW 06:03:13 10° NNW
COSMO-SKYMED 1 2.8 05:58:18 10° SSE 06:02:38 76° ENE 06:06:59 10° N
NOAA 6 4.0 06:01:00 10° N 06:06:13 78° WNW 06:11:23 10° SSW
Cosmos 1937 Rocket 3.6 06:02:09 10° SSW 06:07:17 60° WNW 06:12:31 10° NNE
Cosmos 2227 Rocket 3.6 06:03:28 10° W 06:07:39 21° NW 06:11:52 10° N
CZ-4B R/B 4.1 06:06:57 10° N 06:10:45 44° WNW 06:14:23 10° SW
NOSS 2-2 (D) 3.7 06:07:20 10° SSW 06:11:24 80° ESE 06:16:06 10° NE
Lacrosse 5 3.0 06:09:10 10° W 06:13:32 28° NNW 06:17:54 10° NNE
CENTAUR R/B 3.1 06:07:24 10° NW 06:15:17 79° WSW 06:23:37 10° SSE
ADEOS Rocket 4.1 06:09:44 10° N 06:15:51 30° WNW 06:21:28 10° WSW
Cosmos 2297 Rocket 3.4 06:12:39 10° WSW 06:17:07 23° NW 06:21:35 10° N
Cosmos 192 4.4 06:16:08 10° NNW 06:21:00 60° WSW 06:25:50 10° S
